Location: Rounton
(54.4000°N, 1.3500°W)
Time: 22:51:23
(UTC+00:00)

Vanguard 3 - Pass Details

Date: 09 December 2021
Orbit: 508 x 3260 km, 33.3° (Epoch: 17 January)

Event Time Altitude Azimuth Distance (km) Brightness Sun altitude
Rises 04:35:10 0° 248° (WSW) 6,969 - -30.3°
Reaches altitude 10° 04:40:14 10° 241° (WSW) 6,111 - -29.6°
Exits shadow 04:45:58 22° 229° (SW) 5,235 10.8 -28.7°
Maximum altitude 04:56:55 36° 184° (S) 4,235 10.6 -27.1°
Drops below altitude 10° 05:11:12 10° 126° (SE) 5,253 12.0 -25.1°
Sets 05:15:08 0° 118° (ESE) 5,931 12.7 -24.5°
